Date String (YYYY-MM-DD hh:mm:ss) UTC,Instrument flags,Ambient pressure (hPa),Sample flow (lpm),Bypass flow (lpm),Sample temperature (°C),Ambient temperature (°C),ASC tube jacket temperature (°C),LED temperature (°C),Box temperature (°C),Sample RH (%),Span deviation,Mass concentration (μg/m³),Mass concentration (μg/m³),Mass concentration (μg/m³)
DateTimeUTC,F1_M11,P_M11,Q1_M11,Q2_M11,T1_M11,T2_M11,T3_M11,T4_M11,T5_M11,U1_M11,ZSPAN_M11,X0_M11,X2_M11,X1_M11
2022-12-30 17:00:00,,0819.2,4.99,0.00,22.8,21.7,00.0,31.5,24.6,06.8,0000.0,0001.32,0000.88,0000.70
2022-12-30 17:01:00,,0819.3,5.04,0.00,22.8,21.7,00.0,31.5,24.6,06.6,0000.0,0001.40,0000.91,0000.71
2022-12-30 17:02:00,,0819.4,5.01,0.00,22.8,21.7,00.0,31.5,24.6,06.9,0000.0,0001.42,0000.93,0000.72
2022-12-30 17:03:00,,0819.3,4.98,0.00,22.8,21.8,00.0,31.5,24.6,07.2,0000.0,0001.52,0000.97,0000.75
2022-12-30 17:04:00,,0819.3,5.00,0.00,22.8,21.8,00.0,31.5,24.6,07.0,0000.0,0001.59,0001.03,0000.79
2022-12-30 17:05:00,,0819.3,5.00,0.00,22.9,21.8,00.0,31.5,24.7,06.6,0000.0,0001.55,0001.03,0000.81
2022-12-30 17:06:00,,0819.2,5.04,0.00,22.9,21.8,00.0,31.6,24.7,06.4,0000.0,0001.53,0001.02,0000.81
2022-12-30 17:07:00,,0819.2,4.99,0.00,22.9,21.8,00.0,31.6,24.8,06.4,0000.0,0001.51,0001.00,0000.82
2022-12-30 17:08:00,,0819.3,4.97,0.00,22.9,21.9,00.0,31.6,24.8,06.4,0000.0,0001.49,0000.99,0000.83
2022-12-30 17:09:00,,0819.3,5.01,0.00,22.9,21.9,00.0,31.6,24.8,06.3,0000.0,0001.48,0001.00,0000.84
2022-12-30 17:10:00,,0819.3,5.02,0.00,23.0,21.9,00.0,31.6,24.8,06.3,0000.0,0001.47,0000.99,0000.84
2022-12-30 17:11:00,,0819.3,4.98,0.00,23.0,21.9,00.0,31.6,24.8,06.2,0000.0,0001.42,0000.98,0000.84
2022-12-30 17:12:00,,0819.2,4.98,0.00,23.0,21.9,00.0,31.7,24.8,06.3,0000.0,0001.33,0000.94,0000.83
2022-12-30 17:13:00,,0819.3,4.97,0.00,23.0,21.9,00.0,31.7,24.8,06.3,0000.0,0001.29,0000.92,0000.82
2022-12-30 17:14:00,,0819.3,4.99,0.00,23.0,22.0,00.0,31.7,24.8,06.4,0000.0,0001.32,0000.90,0000.81
2022-12-30 17:15:00,,0819.3,5.03,0.00,23.0,22.0,00.0,31.7,24.9,06.3,0000.0,0001.83,0000.87,0000.78
2022-12-30 17:16:00,,0819.2,5.01,0.00,23.1,22.0,00.0,31.7,24.9,06.3,0000.0,0001.78,0000.83,0000.76
2022-12-30 17:17:00,,0819.2,5.00,0.00,23.1,22.0,00.0,31.7,24.9,06.2,0000.0,0001.84,0000.85,0000.77
2022-12-30 17:18:00,,0819.2,4.97,0.00,23.1,22.0,00.0,31.8,24.9,06.1,0000.0,0001.92,0000.87,0000.76
2022-12-30 17:19:00,,0819.2,4.98,0.00,23.1,22.0,00.0,31.8,24.9,06.1,0000.0,0001.92,0000.87,0000.75
2022-12-30 17:20:00,,0819.2,5.03,0.00,23.1,22.1,00.0,31.8,24.9,06.1,0000.0,0001.91,0000.86,0000.75
2022-12-30 17:21:00,,0819.1,5.02,0.00,23.1,22.1,00.0,31.8,25.0,06.1,0000.0,0001.94,0000.88,0000.75
2022-12-30 17:22:00,,0819.1,4.97,0.00,23.2,22.1,00.0,31.8,25.0,06.1,0000.0,0001.98,0000.89,0000.75
2022-12-30 17:23:00,,0819.1,4.98,0.00,23.2,22.1,00.0,31.8,25.0,06.1,0000.0,0002.14,0000.92,0000.76
2022-12-30 17:24:00,,0819.1,5.05,0.00,23.2,22.1,00.0,31.8,25.0,06.1,0000.0,0002.13,0000.92,0000.77
2022-12-30 17:25:00,,0819.1,5.04,0.00,23.2,22.2,00.0,31.9,25.0,06.3,0000.0,0002.11,0000.93,0000.77
2022-12-30 17:26:00,,0819.0,4.98,0.00,23.2,22.2,00.0,31.9,25.0,06.9,0000.0,0001.52,0000.95,0000.79
2022-12-30 17:27:00,,0819.0,4.96,0.00,23.2,22.2,00.0,31.9,25.0,06.4,0000.0,0001.52,0000.96,0000.79
2022-12-30 17:28:00,,0819.0,5.02,0.00,23.3,22.2,00.0,31.9,25.0,06.1,0000.0,0001.58,0000.98,0000.79
2022-12-30 17:29:00,,0819.1,5.00,0.00,23.3,22.2,00.0,32.0,25.1,05.9,0000.0,0001.58,0000.99,0000.80
2022-12-30 17:30:00,,0819.1,5.04,0.00,23.3,22.2,00.0,32.0,25.1,05.7,0000.0,0001.60,0001.00,0000.81
2022-12-30 17:31:00,,0819.1,4.98,0.00,23.3,22.3,00.0,32.0,25.1,05.7,0000.0,0001.73,0001.00,0000.80
2022-12-30 17:32:00,,0819.1,4.97,0.00,23.3,22.3,00.0,32.0,25.1,05.6,0000.0,0001.77,0000.98,0000.79
2022-12-30 17:33:00,,0819.2,5.03,0.00,23.3,22.3,00.0,32.0,25.1,05.7,0000.0,0001.72,0000.98,0000.79
2022-12-30 17:34:00,,0819.1,5.01,0.00,23.3,22.3,00.0,32.0,25.1,07.0,0000.0,0001.63,0001.00,0000.80
2022-12-30 17:35:00,,0819.0,5.00,0.00,23.3,22.3,00.0,32.0,25.1,07.3,0000.0,0001.64,0001.01,0000.81
2022-12-30 17:36:00,,0819.0,4.99,0.00,23.4,22.3,00.0,32.1,25.1,07.3,0000.0,0001.68,0001.03,0000.83
2022-12-30 17:37:00,,0818.9,5.00,0.00,23.4,22.3,00.0,32.1,25.1,06.8,0000.0,0001.82,0001.06,0000.82
2022-12-30 17:38:00,,0818.8,4.98,0.00,23.4,22.3,00.0,32.1,25.2,06.2,0000.0,0001.87,0001.08,0000.82
2022-12-30 17:39:00,,0818.8,5.05,0.00,23.4,22.3,00.0,32.1,25.2,06.1,0000.0,0001.79,0001.05,0000.81
2022-12-30 17:40:00,,0818.8,5.01,0.00,23.4,22.3,00.0,32.1,25.2,06.0,0000.0,0001.80,0001.03,0000.81
2022-12-30 17:41:00,,0818.8,4.97,0.00,23.4,22.4,00.0,32.1,25.2,05.8,0000.0,0001.79,0001.03,0000.80
2022-12-30 17:42:00,,0818.8,4.97,0.00,23.5,22.4,00.0,32.1,25.2,05.9,0000.0,0001.71,0001.04,0000.80
2022-12-30 17:43:00,,0818.8,4.99,0.00,23.5,22.4,00.0,32.2,25.2,05.9,0000.0,0002.66,0001.05,0000.81
2022-12-30 17:44:00,,0818.9,5.03,0.00,23.5,22.4,00.0,32.2,25.2,06.4,0000.0,0003.87,0001.07,0000.81
2022-12-30 17:45:00,,0818.9,5.02,0.00,23.5,22.4,00.0,32.2,25.2,06.9,0000.0,0003.95,0001.06,0000.80
2022-12-30 17:46:00,,0818.9,4.97,0.00,23.5,22.4,00.0,32.2,25.2,06.7,0000.0,0004.10,0001.07,0000.78
2022-12-30 17:47:00,,0818.8,4.97,0.00,23.5,22.4,00.0,32.2,25.3,06.3,0000.0,0004.24,0001.04,0000.75
2022-12-30 17:48:00,,0818.7,4.98,0.00,23.5,22.5,00.0,32.2,25.3,06.0,0000.0,0004.40,0000.96,0000.73
2022-12-30 17:49:00,,0818.7,4.98,0.00,23.6,22.5,00.0,32.2,25.3,05.8,0000.0,0004.34,0000.94,0000.72
2022-12-30 17:50:00,,0818.6,5.00,0.00,23.6,22.5,00.0,32.3,25.3,05.6,0000.0,0004.36,0000.94,0000.71
2022-12-30 17:51:00,,0818.6,5.02,0.00,23.6,22.5,00.0,32.3,25.3,05.4,0000.0,0004.25,0000.90,0000.70
2022-12-30 17:52:00,,0818.6,4.99,0.00,23.6,22.5,00.0,32.3,25.3,05.3,0000.0,0004.28,0000.89,0000.68
2022-12-30 17:53:00,,0818.7,4.98,0.00,23.6,22.5,00.0,32.3,25.4,05.5,0000.0,0004.41,0000.90,0000.67
2022-12-30 17:54:00,,0818.7,4.99,0.00,23.6,22.5,00.0,32.3,25.4,05.8,0000.0,0003.81,0000.92,0000.67
2022-12-30 17:55:00,,0818.7,5.03,0.00,23.6,22.5,00.0,32.3,25.4,06.9,0000.0,0002.50,0000.94,0000.66
2022-12-30 17:56:00,,0818.7,5.04,0.00,23.7,22.6,00.0,32.3,25.4,07.1,0000.0,0002.50,0000.94,0000.67
2022-12-30 17:57:00,,0818.7,5.01,0.00,23.7,22.6,00.0,32.3,25.5,06.2,0000.0,0002.36,0000.92,0000.67
2022-12-30 17:58:00,,0818.7,4.97,0.00,23.7,22.6,00.0,32.4,25.5,06.3,0000.0,0002.38,0000.95,0000.68
2022-12-30 17:59:00,,0818.7,4.95,0.00,23.7,22.6,00.0,32.4,25.5,06.3,0000.0,0002.16,0001.02,0000.68
